Regional Weather Roundup
Issued by NWS Grand Forks, ND

Home | Current Version | Previous Version | Graphics & Text | Print | Product List | Glossary On
Versions: 1 2 3 4 5 6 7 8 9 10 11 12 13 14 15 16 17 18 19 20 21 22 23 24 25 26 27 28 29 30 31 32 33 34 35 36 37 38 39 40 41 42 43 44 45 46 47 48 49 50
000
ASUS43 KFGF 231710
RWRFGF
PRAIRIE TO PINES  WEATHER ROUNDUP
NATIONAL WEATHER SERVICE EASTERN NORTH DAKOTA/GRAND FORKS ND
1200 PM CDT WED AUG 23 2017

 **SATELLITE DATA USED TO AUGMENT SKY COVER AT AUTOMATED STATIONS**
 *****  WEATHER ACROSS EASTERN NORTH DAKOTA  *****

CITY           SKY/WX    TMP DP  RH WIND       PRES   REMARKS
GRAND FORKS    FAIR      71  51  49 SE8       30.08F
GRAND FRKS AFB PTSUNNY   71  50  47 SE8       30.08F
DEVILS LAKE    FAIR      71  51  49 SE7       30.06F
FARGO          FAIR      72  51  47 VRB7      30.08F
WAHPETON ARPT  FAIR      70  45  40 SE3       30.11S
$$

 ***** WEATHER ACROSS CENTRAL AND WESTERN NORTH DAKOTA  *****

CITY           SKY/WX    TMP DP  RH WIND       PRES   REMARKS
BISMARCK       FAIR      77  54  44 CALM      30.04F
MINOT          FAIR      79  48  33 SW7       30.00F
JAMESTOWN      FAIR      73  51  46 SE6       30.06F
MINOT AFB      FAIR      80  48  32 W9        29.98F
GARRISON         N/A     74  51  44 SW9       30.02F
WILLISTON      FAIR      78  49  35 S6        30.00F
DICKINSON      FAIR      78  50  37 S12       30.02F
HETTINGER      FAIR      75  52  44 SE8       30.05F
$$

 *****  OTHER AIRPORT OBSERVATIONS IN OUR AREA  *****

CITY           SKY/WX    TMP DP  RH WIND       PRES   REMARKS
WALHALLA       FAIR      64  63  94 E8        30.09S
GRAFTON AIRPOR FAIR      68  52  56 SE8       30.10F
VALLEY CITY AR   N/A     72  50  46 S9        30.09F
CANDO          FAIR      73  54  49 SE8       30.07S
CAVALIER APRT  FAIR      64  52  63 SE5       30.09S
GWINNER        SUNNY     72  54  53 CALM      30.09S
SHEYENNE NWR     N/A     75  53  45 S3        29.95S
ROLLA          PTSUNNY   72  46  40 S8        30.05F
 ***** THE ABOVE OBSERVATIONS ARE NON NWS ARE NOT QUALITY
       CONTROLLED AND MAY MIS-REPORT RAIN FOR SNOW...
$$

  *****  WEATHER ACROSS NORTHERN MINNESOTA  *****

CITY           SKY/WX    TMP DP  RH WIND       PRES   REMARKS
FLAG ISLAND    FAIR      59  48  67 CALM      30.12R
WARROAD        FAIR      59  54  82 CALM      30.13S
ROSEAU           N/A     57  54  88 CALM      30.13S
HALLOCK        FAIR      64  54  68 E5        30.10F
THF RVR FALLS  FAIR      66  50  56 E6        30.11F
BAUDETTE       CLOUDY    61  52  72 CALM      30.12S
WASKISH        CLOUDY    63  54  72 W6        30.12S
CROOKSTON      FAIR      68  52  56 CALM      30.10F
STEPHEN NDAWN    N/A     68  52  56 SE5         N/A
GREENBUSH NDAW   N/A     61  54  77 E3          N/A
$$
  *****  WEATHER ACROSS CENTRAL AND WEST MINNESOTA  *****

CITY           SKY/WX    TMP DP  RH WIND       PRES   REMARKS
FOSSTON        FAIR      68  57  68 NE6       30.11F
BEMIDJI        FAIR      63  48  59 CALM      30.12S
PARK RAPIDS    FAIR      67  52  58 NE6       30.11F
ELBOW LAKE     FAIR      70  54  56 CALM      30.12F
WADENA         FAIR      68  52  56 NE5       30.11S
DETROIT LAKES  FAIR      68  50  52 CALM      30.12S
MOORHEAD       FAIR      70  48  46 E3        30.10F
FERGUS FALLS   FAIR      70  50  49 CALM      30.10F
MORRIS MN      FAIR      73  48  40 SW3       30.11S
STAPLES        FAIR      68  48  49 NW8       30.11F
$$
  *****  WEATHER ELSEWHERE ACROSS MINNESOTA  *****

CITY           SKY/WX    TMP DP  RH WIND       PRES   REMARKS
DULUTH         PTSUNNY   63  48  58 W9        30.09F
INTRNTL FALLS  FAIR      60  47  61 N7        30.12R
ELY            PTSUNNY   57  43  58 NW7       30.11S
CLOQUET        FAIR      63  45  51 NW10      30.10F
WHEATON        FAIR      72  48  43 NE3       30.12S
BRAINERD       FAIR      66  51  58 N12       30.12S
HIBBING        PTSUNNY   60  48  64 N12       30.11S
ALEXANDRIA     FAIR      71  49  45 N5        30.13F
SAINT CLOUD    FAIR      69  54  58 VRB6      30.11F
MINNEAPOLIS    FAIR      71  52  50 N13       30.10S
$$

  *****  WEATHER ACROSS SOUTH DAKOTA  *****

CITY           SKY/WX    TMP DP  RH WIND       PRES   REMARKS
SIOUX FALLS    FAIR      76  55  48 S8        30.13F
BROOKINGS      FAIR      73  50  44 S8        30.13F
WATERTOWN      FAIR      73  51  46 S8        30.10F
HURON          FAIR      76  57  51 SE12      30.05F
SISSETON         N/A     74  56  53 SE5       30.09F
ABERDEEN       FAIR      75  52  44 SE10      30.06F
MITCHELL       FAIR      78  59  51 S9        30.07F
PIERRE         FAIR      76  55  48 S10       30.00F
MOBRIDGE       FAIR      78  56  46 SE14      30.00F
RAPID CITY     FAIR      78  51  38 N6        30.05F
$$

  *****  SOME WEATHER IN NEARBY STATES *****

CITY           SKY/WX    TMP DP  RH WIND       PRES   REMARKS
GLASGOW MT     FAIR      78  46  32 VRB6      29.98F
GREAT FALLS MT FAIR      82  33  17 SW10      30.03F SMOKE
CHEYENNE WY    FAIR      82  36  19 VRB5      30.23S
SCOTTSBLUFF NE FAIR      76  58  53 VRB3      30.11F
OMAHA NE       FAIR      75  49  39 SW6       30.16F
DES MOINES IA  FAIR      76  48  37 N5        30.15S
DAVENPORT IA   FAIR      74  51  44 NW8G18    30.12S
CHICAGO IL     FAIR      77  48  35 NW15      30.04S
EAU CLAIRE WI  FAIR      69  50  50 NW15      30.08S
LA CROSSE WI   FAIR      73  54  51 NW10      30.08S
$$

  *****  SOME NATIONAL WEATHER *****

CITY           SKY/WX    TMP DP  RH WIND       PRES   REMARKS
LA GUARDIA NY  PTSUNNY   79  55  43 NW13G20   29.83S
RALEIGH NC     FAIR      92  72  51 VRB6      29.88F HX  99
ATLANTA GA     PTSUNNY   86  71  60 W10       29.98F HX  91
NEW ORLEANS LA PTSUNNY   86  75  69 N6        29.98F HX  95
OKLAHOMA CITY  PTSUNNY   78  68  71 NE9       30.10S
ALBUQUERQUE NM PTSUNNY   75  58  55 S5        30.30F
SALT LAKE CITY FAIR      80  52  37 S8        30.16F
LOS ANGELES CA CLOUDY    68  63  84 SW6       29.99S
BOISE ID       FAIR      80  47  31 VRB5      30.03R
SEATTLE WA     CLOUDY    63  56  78 VRB3      30.05F
$$

*** WEATHER ACROSS MANITOBA...SASKATCHEWAN AND ONTARIO ***
                ***ONTARIO***

CITY           SKY/WX    TMP DP  RH WIND       PRES   REMARKS
GERALDTON      CLOUDY    55  41  58 N14G23    29.98R
THUNDER BAY    MOSUNNY   61  36  39 N13G23    30.04R
SIOUX LOOKOUT  PTSUNNY   59  36  41 N6        30.12R
TORONTO        PTSUNNY   73  57  56 W15       29.83F
BIG TROUT LK   SUNNY     54  34  47 NW12G17   30.09S
PICKLE LAKE    MOSUNNY   55  34  44 NW7       30.09S
DRYDEN         SUNNY     57  41  54 NE6       30.11S
KENORA         CLOUDY    59  45  58 N8        30.13S
$$
                *** MANITOBA***

CITY           SKY/WX    TMP DP  RH WIND       PRES   REMARKS
BRANDON        LGT RAIN  57  52  82 E9        30.04R
DAUPHIN        CLOUDY    61  54  77 SE16G25   30.08R
ISLAND LAKE    MOSUNNY   57  41  54 NW2       30.16S
PILOT MOUND    NOT AVBL
THE PAS        PTSUNNY   64  52  63 E6        30.12R
THOMPSON       PTSUNNY   61  36  39 S3        30.17S
WINNIPEG       LGT RAIN  57  54  88 SE8       30.11F
LYNN LAKE      SUNNY     63  48  59 SE10      30.14S
CHURCHILL      SUNNY     57  43  58 NW9       30.14R
GILLAM         SUNNY     57  36  44 VRB2      30.16S
$$
                ***SASKATCHEWAN***

CITY           SKY/WX    TMP DP  RH WIND       PRES   REMARKS
ESTEVAN        MOSUNNY   77  50  38 W7        29.99F
KINDERSLEY     MOSUNNY   73  52  46 E18       29.99R
LLOYDMINSTER   PTSUNNY   68  57  68 E15       30.00F
PRINCE ALBERT  MOSUNNY   68  50  52 E10       30.07S
REGINA         SUNNY     77  46  33 E10       29.99S
YORKTON        SUNNY     68  50  52 E12G18    30.02R
N. BATTLEFORD  SUNNY     73  55  53 SE12      30.03S
LA RONGE       PTSUNNY   64  54  68 SE7       30.08S SMOKE
SASKATOON      MOSUNNY   73  52  46 NE9       30.04R
SWIFT CURRENT  CLOUDY    75  45  33 E12       30.00S
$$
NOTE: THESE ARE AUTOMATED STATIONS WITH LIMITED QUALITY CONTROL
      "FAIR" INDICATES FEW OR NO CLOUDS BELOW 12,000 FEET WITH NO
      SIGNIFICANT WEATHER AND/OR OBSTRUCTIONS TO VISIBILITY.
      SKY/WX - SKY CONDITION AND SIGNIFICANT WEATHER.
      TMP - AIR TEMPERATURE.    DP   - DEWPOINT TEMPERATURE.
      RH  - RELATIVE HUMIDITY.  PRES - PRESSURE.
      HX  - HEAT INDEX.         WCI  - WIND CHILL INDEX.
$




USA.gov is the U.S. government's official web portal to all federal, state and local government web resources and services.